Time,TemperatureF,DewpointF,PressureIn,WindDirection,WindDirectionDegrees,WindSpeedMPH,WindSpeedGustMPH,Humidity,HourlyPrecipIn,Conditions,Clouds,dailyrainin,SoftwareType,DateUTC
2013-08-05 00:00:00,68.0,54.9,30.01,NNE,23,0.9,1.1,63,0.00,,,0.00,WUHU216HW,2013-08-05 04:00:00,
2013-08-05 00:01:00,68.0,54.9,30.01,NNE,23,0.9,1.1,63,0.00,,,0.00,WUHU216HW,2013-08-05 04:01:00,
2013-08-05 00:02:00,68.0,54.9,30.00,NNE,23,0.0,1.1,63,0.00,,,0.00,WUHU216HW,2013-08-05 04:02:00,
2013-08-05 00:07:00,68.2,55.1,30.00,East,90,0.7,1.1,63,0.00,,,0.00,WUHU216HW,2013-08-05 04:07:00,
2013-08-05 00:12:00,68.4,55.3,30.01,WSW,248,0.0,0.9,63,0.00,,,0.00,WUHU216HW,2013-08-05 04:12:00,
2013-08-05 00:17:00,68.4,54.9,30.00,SSW,203,0.0,0.4,62,0.00,,,0.00,WUHU216HW,2013-08-05 04:17:00,
2013-08-05 00:19:00,68.4,54.9,30.01,SW,225,0.0,0.0,62,0.00,,,0.00,WUHU216HW,2013-08-05 04:19:00,
2013-08-05 00:22:00,68.4,54.9,30.01,SW,225,0.0,0.4,62,0.00,,,0.00,WUHU216HW,2013-08-05 04:22:00,
2013-08-05 00:28:00,68.4,54.9,30.01,SW,225,0.0,0.0,62,0.00,,,0.00,WUHU216HW,2013-08-05 04:28:00,
2013-08-05 00:49:00,67.7,54.2,30.00,SSW,203,0.0,0.0,62,0.00,,,0.00,WUHU216HW,2013-08-05 04:49:00,
2013-08-05 00:54:00,67.7,54.2,30.00,ENE,68,0.0,0.0,62,0.00,,,0.00,WUHU216HW,2013-08-05 04:54:00,
2013-08-05 00:59:00,67.5,54.0,30.00,SE,135,0.0,0.0,62,0.00,,,0.00,WUHU216HW,2013-08-05 04:59:00,
2013-08-05 01:04:00,67.5,54.0,30.00,SSW,203,0.0,0.7,62,0.00,,,0.00,WUHU216HW,2013-08-05 05:04:00,
2013-08-05 01:09:00,67.5,54.0,30.00,SSW,203,0.0,0.7,62,0.00,,,0.00,WUHU216HW,2013-08-05 05:09:00,
2013-08-05 01:14:00,67.5,54.0,30.00,ESE,113,0.0,0.4,62,0.00,,,0.00,WUHU216HW,2013-08-05 05:14:00,
2013-08-05 01:20:00,67.5,54.0,30.00,East,90,0.0,0.4,62,0.00,,,0.00,WUHU216HW,2013-08-05 05:20:00,
2013-08-05 01:25:00,67.5,54.0,30.00,WSW,248,0.0,0.4,62,0.00,,,0.00,WUHU216HW,2013-08-05 05:25:00,
2013-08-05 01:30:00,67.5,54.0,29.99,SW,225,0.4,0.4,62,0.00,,,0.00,WUHU216HW,2013-08-05 05:30:00,
2013-08-05 01:35:00,67.3,53.8,29.99,SW,225,0.0,0.4,62,0.00,,,0.00,WUHU216HW,2013-08-05 05:35:00,
2013-08-05 01:40:00,67.1,53.6,29.99,NNW,338,0.2,0.4,62,0.00,,,0.00,WUHU216HW,2013-08-05 05:40:00,
2013-08-05 01:45:00,67.0,53.6,29.99,NNW,338,0.0,0.4,62,0.00,,,0.00,WUHU216HW,2013-08-05 05:45:00,
2013-08-05 01:50:00,66.8,53.4,30.00,NNE,23,0.0,0.0,62,0.00,,,0.00,WUHU216HW,2013-08-05 05:50:00,
2013-08-05 01:55:00,66.6,53.7,30.00,North,0,0.0,0.2,63,0.00,,,0.00,WUHU216HW,2013-08-05 05:55:00,
2013-08-05 02:00:00,66.2,53.6,30.00,North,0,0.0,0.2,64,0.00,,,0.00,WUHU216HW,2013-08-05 06:00:00,
2013-08-05 02:05:00,66.2,53.6,30.00,NNW,338,0.0,0.0,64,0.00,,,0.00,WUHU216HW,2013-08-05 06:05:00,
2013-08-05 02:10:00,65.9,53.4,30.00,North,0,0.9,0.9,64,0.00,,,0.00,WUHU216HW,2013-08-05 06:10:00,
2013-08-05 02:15:00,65.9,53.7,30.00,North,0,0.0,0.9,65,0.00,,,0.00,WUHU216HW,2013-08-05 06:15:00,
2013-08-05 02:20:00,65.9,53.7,30.00,West,270,0.7,0.7,65,0.00,,,0.00,WUHU216HW,2013-08-05 06:20:00,
2013-08-05 02:25:00,66.1,53.9,30.00,NE,45,0.0,0.7,65,0.00,,,0.00,WUHU216HW,2013-08-05 06:25:00,
2013-08-05 02:30:00,65.9,53.4,30.00,West,270,0.0,0.4,64,0.00,,,0.00,WUHU216HW,2013-08-05 06:30:00,
2013-08-05 02:36:00,65.9,53.4,30.00,NE,45,0.0,0.4,64,0.00,,,0.00,WUHU216HW,2013-08-05 06:36:00,
2013-08-05 02:41:00,65.5,53.4,30.00,NE,45,0.0,0.2,65,0.00,,,0.00,WUHU216HW,2013-08-05 06:41:00,
2013-08-05 02:46:00,65.5,53.4,30.01,NNW,338,0.0,0.0,65,0.00,,,0.00,WUHU216HW,2013-08-05 06:46:00,
2013-08-05 02:51:00,65.3,53.3,30.01,NNW,338,0.0,0.0,65,0.00,,,0.00,WUHU216HW,2013-08-05 06:51:00,
2013-08-05 02:56:00,65.2,53.1,30.01,NNW,338,0.0,0.0,65,0.00,,,0.00,WUHU216HW,2013-08-05 06:56:00,
2013-08-05 03:01:00,65.0,53.3,30.01,NNE,23,0.0,0.0,66,0.00,,,0.00,WUHU216HW,2013-08-05 07:01:00,
2013-08-05 03:06:00,64.8,53.2,30.01,NNE,23,0.0,0.0,66,0.00,,,0.00,WUHU216HW,2013-08-05 07:06:00,
2013-08-05 03:11:00,64.6,53.4,30.02,NNW,338,0.0,0.2,67,0.00,,,0.00,WUHU216HW,2013-08-05 07:11:00,
2013-08-05 03:16:00,64.6,53.4,30.02,North,0,0.0,0.2,67,0.00,,,0.00,WUHU216HW,2013-08-05 07:16:00,
2013-08-05 03:21:00,64.4,53.3,30.02,NNW,338,0.0,0.2,67,0.00,,,0.00,WUHU216HW,2013-08-05 07:21:00,
2013-08-05 03:26:00,64.4,53.3,30.02,NNW,338,0.0,0.2,67,0.00,,,0.00,WUHU216HW,2013-08-05 07:26:00,
2013-08-05 03:32:00,64.3,53.1,30.02,WNW,293,0.0,0.9,67,0.00,,,0.00,WUHU216HW,2013-08-05 07:32:00,
2013-08-05 03:37:00,64.1,53.3,30.02,WNW,293,0.0,0.9,68,0.00,,,0.00,WUHU216HW,2013-08-05 07:37:00,
2013-08-05 03:42:00,63.9,53.2,30.02,NE,45,0.0,0.0,68,0.00,,,0.00,WUHU216HW,2013-08-05 07:42:00,
2013-08-05 03:47:00,63.9,53.6,30.02,NNW,338,0.0,0.2,69,0.00,,,0.00,WUHU216HW,2013-08-05 07:47:00,
2013-08-05 03:52:00,63.9,53.6,30.02,NNW,338,0.0,0.2,69,0.00,,,0.00,WUHU216HW,2013-08-05 07:52:00,
2013-08-05 03:57:00,63.7,53.4,30.02,NW,315,0.0,0.0,69,0.00,,,0.00,WUHU216HW,2013-08-05 07:57:00,
2013-08-05 04:02:00,63.7,53.4,30.02,NW,315,0.0,0.0,69,0.00,,,0.00,WUHU216HW,2013-08-05 08:02:00,
2013-08-05 04:06:00,63.5,53.2,30.02,WNW,293,0.0,0.0,69,0.00,,,0.00,WUHU216HW,2013-08-05 08:06:00,
2013-08-05 04:12:00,63.5,53.2,30.02,WNW,293,0.0,0.0,69,0.00,,,0.00,WUHU216HW,2013-08-05 08:12:00,
2013-08-05 04:17:00,63.2,53.3,30.02,NW,315,0.0,0.0,70,0.00,,,0.00,WUHU216HW,2013-08-05 08:17:00,
2013-08-05 04:22:00,63.0,53.1,30.02,NW,315,0.0,0.0,70,0.00,,,0.00,WUHU216HW,2013-08-05 08:22:00,
2013-08-05 04:27:00,63.0,53.1,30.02,NW,315,0.0,0.0,70,0.00,,,0.00,WUHU216HW,2013-08-05 08:27:00,
2013-08-05 04:33:00,62.8,52.9,30.02,NW,315,0.0,0.0,70,0.00,,,0.00,WUHU216HW,2013-08-05 08:33:00,
2013-08-05 04:38:00,62.8,52.9,30.02,NW,315,0.0,0.0,70,0.00,,,0.00,WUHU216HW,2013-08-05 08:38:00,
2013-08-05 04:43:00,62.8,52.9,30.02,NW,315,0.0,0.0,70,0.00,,,0.00,WUHU216HW,2013-08-05 08:43:00,
2013-08-05 04:48:00,62.8,52.9,30.02,NNW,338,0.0,0.0,70,0.00,,,0.00,WUHU216HW,2013-08-05 08:48:00,
2013-08-05 04:52:00,63.0,53.1,30.02,ESE,113,0.0,0.7,70,0.00,,,0.00,WUHU216HW,2013-08-05 08:52:00,
2013-08-05 04:58:00,63.2,53.6,30.02,ENE,68,0.0,0.7,71,0.00,,,0.00,WUHU216HW,2013-08-05 08:58:00,
2013-08-05 05:03:00,63.5,53.6,30.02,South,180,0.7,1.1,70,0.00,,,0.00,WUHU216HW,2013-08-05 09:03:00,
2013-08-05 05:08:00,63.7,53.8,30.03,WSW,248,0.7,1.1,70,0.00,,,0.00,WUHU216HW,2013-08-05 09:08:00,
2013-08-05 05:13:00,63.9,54.0,30.03,South,180,0.2,2.0,70,0.00,,,0.00,WUHU216HW,2013-08-05 09:13:00,
2013-08-05 05:18:00,63.9,53.6,30.03,SSE,158,0.4,2.0,69,0.00,,,0.00,WUHU216HW,2013-08-05 09:18:00,
2013-08-05 05:23:00,63.9,53.6,30.03,South,180,0.0,1.1,69,0.00,,,0.00,WUHU216HW,2013-08-05 09:23:00,
2013-08-05 05:28:00,63.9,53.6,30.03,SE,135,0.0,1.1,69,0.00,,,0.00,WUHU216HW,2013-08-05 09:28:00,
2013-08-05 05:34:00,63.7,53.4,30.03,SE,135,0.0,0.4,69,0.00,,,0.00,WUHU216HW,2013-08-05 09:34:00,
2013-08-05 05:39:00,63.5,53.2,30.04,SE,135,0.0,0.0,69,0.00,,,0.00,WUHU216HW,2013-08-05 09:39:00,
2013-08-05 05:44:00,63.0,53.1,30.03,ENE,68,0.0,0.0,70,0.00,,,0.00,WUHU216HW,2013-08-05 09:44:00,
2013-08-05 05:49:00,62.8,52.9,30.04,ENE,68,0.0,0.0,70,0.00,,,0.00,WUHU216HW,2013-08-05 09:49:00,
2013-08-05 05:54:00,62.6,52.7,30.04,ENE,68,0.0,0.0,70,0.00,,,0.00,WUHU216HW,2013-08-05 09:54:00,
2013-08-05 05:59:00,62.6,53.1,30.04,NNE,23,0.0,0.0,71,0.00,,,0.00,WUHU216HW,2013-08-05 09:59:00,
2013-08-05 06:04:00,62.3,52.7,30.04,NNE,23,0.0,0.0,71,0.00,,,0.00,WUHU216HW,2013-08-05 10:04:00,
2013-08-05 06:09:00,62.3,52.7,30.04,NNE,23,0.0,0.0,71,0.00,,,0.00,WUHU216HW,2013-08-05 10:09:00,
2013-08-05 06:15:00,62.1,52.7,30.04,NNE,23,0.0,0.0,71,0.00,,,0.00,WUHU216HW,2013-08-05 10:15:00,
2013-08-05 06:20:00,62.1,53.0,30.05,NNE,23,0.0,0.0,72,0.00,,,0.00,WUHU216HW,2013-08-05 10:20:00,
2013-08-05 06:25:00,61.9,52.8,30.05,NNE,23,0.9,0.9,72,0.00,,,0.00,WUHU216HW,2013-08-05 10:25:00,
2013-08-05 06:30:00,61.9,52.5,30.05,North,0,0.0,0.9,71,0.00,,,0.00,WUHU216HW,2013-08-05 10:30:00,
2013-08-05 06:35:00,61.9,53.2,30.05,North,0,0.0,0.4,73,0.00,,,0.00,WUHU216HW,2013-08-05 10:35:00,
2013-08-05 06:40:00,61.9,52.8,30.05,North,0,0.0,0.4,72,0.00,,,0.00,WUHU216HW,2013-08-05 10:40:00,
2013-08-05 06:46:00,61.7,52.7,30.05,North,0,0.0,0.0,72,0.00,,,0.00,WUHU216HW,2013-08-05 10:46:00,
2013-08-05 06:51:00,61.7,52.7,30.05,North,0,0.0,0.0,72,0.00,,,0.00,WUHU216HW,2013-08-05 10:51:00,
2013-08-05 06:56:00,61.7,53.0,30.05,North,0,0.0,0.0,73,0.00,,,0.00,WUHU216HW,2013-08-05 10:56:00,
2013-08-05 07:01:00,61.7,53.0,30.05,North,0,0.0,0.0,73,0.00,,,0.00,WUHU216HW,2013-08-05 11:01:00,
2013-08-05 07:06:00,61.6,52.8,30.05,North,0,0.0,0.0,73,0.00,,,0.00,WUHU216HW,2013-08-05 11:06:00,
2013-08-05 07:11:00,61.9,53.6,30.05,North,0,0.0,0.0,74,0.00,,,0.00,WUHU216HW,2013-08-05 11:11:00,
2013-08-05 07:17:00,62.1,53.7,30.05,North,0,0.0,0.0,74,0.00,,,0.00,WUHU216HW,2013-08-05 11:17:00,
2013-08-05 07:22:00,62.6,54.2,30.05,North,0,0.0,0.0,74,0.00,,,0.00,WUHU216HW,2013-08-05 11:22:00,
2013-08-05 07:27:00,63.0,54.9,30.06,SE,135,0.2,0.2,75,0.00,,,0.00,WUHU216HW,2013-08-05 11:27:00,
2013-08-05 07:32:00,63.5,55.1,30.07,NE,45,0.0,0.2,74,0.00,,,0.00,WUHU216HW,2013-08-05 11:32:00,
2013-08-05 07:37:00,64.3,55.8,30.07,North,0,0.0,1.6,74,0.00,,,0.00,WUHU216HW,2013-08-05 11:37:00,
2013-08-05 07:42:00,65.0,56.2,30.06,SSW,203,0.0,1.6,73,0.00,,,0.00,WUHU216HW,2013-08-05 11:42:00,
2013-08-05 07:47:00,65.7,56.1,30.07,SSW,203,0.2,0.9,71,0.00,,,0.00,WUHU216HW,2013-08-05 11:47:00,
2013-08-05 07:53:00,66.4,56.3,30.07,SSW,203,1.8,1.8,70,0.00,,,0.00,WUHU216HW,2013-08-05 11:53:00,
2013-08-05 07:58:00,66.6,56.1,30.07,South,180,0.4,1.8,69,0.00,,,0.00,WUHU216HW,2013-08-05 11:58:00,
2013-08-05 08:03:00,66.8,56.3,30.07,SSE,158,0.2,1.1,69,0.00,,,0.00,WUHU216HW,2013-08-05 12:03:00,
2013-08-05 08:08:00,67.0,56.1,30.07,SSW,203,1.1,1.1,68,0.00,,,0.00,WUHU216HW,2013-08-05 12:08:00,
2013-08-05 08:13:00,67.3,56.4,30.07,SSE,158,0.7,1.1,68,0.00,,,0.00,WUHU216HW,2013-08-05 12:13:00,
2013-08-05 08:18:00,67.7,56.7,30.07,South,180,0.4,0.7,68,0.00,,,0.00,WUHU216HW,2013-08-05 12:18:00,
2013-08-05 08:23:00,68.2,56.8,30.07,ESE,113,0.0,0.9,67,0.00,,,0.00,WUHU216HW,2013-08-05 12:23:00,
2013-08-05 08:28:00,68.6,57.2,30.07,SE,135,0.0,0.9,67,0.00,,,0.00,WUHU216HW,2013-08-05 12:28:00,
2013-08-05 08:33:00,68.8,56.9,30.07,SSW,203,0.7,1.1,66,0.00,,,0.00,WUHU216HW,2013-08-05 12:33:00,
2013-08-05 08:39:00,68.9,57.1,30.07,SSE,158,0.9,1.1,66,0.00,,,0.00,WUHU216HW,2013-08-05 12:39:00,
2013-08-05 08:44:00,69.3,57.4,30.07,SSE,158,0.0,1.8,66,0.00,,,0.00,WUHU216HW,2013-08-05 12:44:00,
2013-08-05 08:49:00,69.5,57.2,30.07,East,90,0.0,1.8,65,0.00,,,0.00,WUHU216HW,2013-08-05 12:49:00,
2013-08-05 08:54:00,69.7,57.3,30.07,SE,135,0.4,1.1,65,0.00,,,0.00,WUHU216HW,2013-08-05 12:54:00,
2013-08-05 08:59:00,69.8,57.5,30.07,South,180,0.7,1.1,65,0.00,,,0.00,WUHU216HW,2013-08-05 12:59:00,
2013-08-05 09:04:00,69.8,57.5,30.07,South,180,0.7,1.8,65,0.00,,,0.00,WUHU216HW,2013-08-05 13:04:00,
2013-08-05 09:09:00,70.0,57.7,30.07,SE,135,0.0,1.8,65,0.00,,,0.00,WUHU216HW,2013-08-05 13:09:00,
2013-08-05 09:14:00,70.4,58.1,30.07,South,180,0.4,1.1,65,0.00,,,0.00,WUHU216HW,2013-08-05 13:14:00,
2013-08-05 09:19:00,70.7,58.3,30.08,West,270,1.6,1.6,65,0.00,,,0.00,WUHU216HW,2013-08-05 13:19:00,
2013-08-05 09:24:00,72.0,59.6,30.08,ENE,68,0.2,1.6,65,0.00,,,0.00,WUHU216HW,2013-08-05 13:24:00,
2013-08-05 09:30:00,73.1,59.7,30.07,ESE,113,1.1,1.1,63,0.00,,,0.00,WUHU216HW,2013-08-05 13:30:00,
2013-08-05 09:35:00,73.1,59.2,30.08,NE,45,0.0,1.3,62,0.00,,,0.00,WUHU216HW,2013-08-05 13:35:00,
2013-08-05 09:40:00,73.6,60.2,30.08,ENE,68,0.0,1.3,63,0.00,,,0.00,WUHU216HW,2013-08-05 13:40:00,
2013-08-05 09:45:00,74.5,60.7,30.08,NE,45,0.7,0.7,62,0.00,,,0.00,WUHU216HW,2013-08-05 13:45:00,
2013-08-05 09:50:00,74.5,59.8,30.08,SW,225,0.0,0.7,60,0.00,,,0.00,WUHU216HW,2013-08-05 13:50:00,
2013-08-05 09:55:00,74.5,59.8,30.07,SW,225,0.7,1.6,60,0.00,,,0.00,WUHU216HW,2013-08-05 13:55:00,
2013-08-05 10:01:00,74.5,59.2,30.07,SW,225,1.1,1.8,59,0.00,,,0.00,WUHU216HW,2013-08-05 14:01:00,
2013-08-05 10:06:00,74.5,59.2,30.07,South,180,1.1,1.8,59,0.00,,,0.00,WUHU216HW,2013-08-05 14:06:00,
2013-08-05 10:11:00,75.4,60.1,30.07,SSE,158,0.0,1.3,59,0.00,,,0.00,WUHU216HW,2013-08-05 14:11:00,
2013-08-05 10:17:00,75.6,59.8,30.07,North,0,0.0,1.3,58,0.00,,,0.00,WUHU216HW,2013-08-05 14:17:00,
2013-08-05 10:22:00,76.3,60.5,30.07,SE,135,1.1,1.1,58,0.00,,,0.00,WUHU216HW,2013-08-05 14:22:00,
2013-08-05 10:27:00,78.1,60.1,30.07,WSW,248,1.1,1.1,54,0.00,,,0.00,WUHU216HW,2013-08-05 14:27:00,
2013-08-05 10:32:00,79.0,60.9,30.07,SSW,203,0.4,2.7,54,0.00,,,0.00,WUHU216HW,2013-08-05 14:32:00,
2013-08-05 10:37:00,79.9,61.2,30.07,East,90,0.7,2.7,53,0.00,,,0.00,WUHU216HW,2013-08-05 14:37:00,
2013-08-05 10:42:00,81.0,61.1,30.07,NW,315,0.4,1.8,51,0.00,,,0.00,WUHU216HW,2013-08-05 14:42:00,
2013-08-05 10:48:00,81.7,61.3,30.07,NW,315,0.0,1.6,50,0.00,,,0.00,WUHU216HW,2013-08-05 14:48:00,
2013-08-05 10:53:00,81.9,60.9,30.07,North,0,0.4,1.6,49,0.00,,,0.00,WUHU216HW,2013-08-05 14:53:00,
2013-08-05 10:58:00,80.8,60.5,30.07,North,0,0.0,1.6,50,0.00,,,0.00,WUHU216HW,2013-08-05 14:58:00,
2013-08-05 11:03:00,81.0,60.0,30.07,North,0,1.6,1.6,49,0.00,,,0.00,WUHU216HW,2013-08-05 15:03:00,
2013-08-05 11:08:00,82.8,61.7,30.07,North,0,0.2,3.4,49,0.00,,,0.00,WUHU216HW,2013-08-05 15:08:00,
2013-08-05 11:13:00,82.4,59.5,30.07,SE,135,0.9,3.4,46,0.00,,,0.00,WUHU216HW,2013-08-05 15:13:00,
2013-08-05 11:19:00,81.0,58.1,30.07,SSE,158,1.1,1.8,46,0.00,,,0.00,WUHU216HW,2013-08-05 15:19:00,
2013-08-05 11:24:00,80.6,58.5,30.07,WSW,248,1.1,1.6,47,0.00,,,0.00,WUHU216HW,2013-08-05 15:24:00,
2013-08-05 11:29:00,81.4,59.8,30.08,NW,315,0.4,1.1,48,0.00,,,0.00,WUHU216HW,2013-08-05 15:29:00,
2013-08-05 11:34:00,81.4,59.8,30.08,North,0,1.8,1.8,48,0.00,,,0.00,WUHU216HW,2013-08-05 15:34:00,
2013-08-05 11:40:00,82.4,60.1,30.08,NNE,23,0.7,1.8,47,0.00,,,0.00,WUHU216HW,2013-08-05 15:40:00,
2013-08-05 11:45:00,81.7,59.4,30.07,NNE,23,0.0,1.3,47,0.00,,,0.00,WUHU216HW,2013-08-05 15:45:00,
2013-08-05 11:50:00,80.3,59.4,30.07,North,0,0.9,0.9,49,0.00,,,0.00,WUHU216HW,2013-08-05 15:50:00,
2013-08-05 11:55:00,79.9,59.0,30.07,SSW,203,0.2,2.0,49,0.00,,,0.00,WUHU216HW,2013-08-05 15:55:00,
2013-08-05 11:59:00,80.1,59.2,30.07,NW,315,0.0,2.0,49,0.00,,,0.00,WUHU216HW,2013-08-05 15:59:00,
2013-08-05 12:05:00,80.3,59.4,30.07,North,0,0.0,1.8,49,0.00,,,0.00,WUHU216HW,2013-08-05 16:05:00,
2013-08-05 12:10:00,79.6,58.7,30.06,North,0,1.8,1.8,49,0.00,,,0.00,WUHU216HW,2013-08-05 16:10:00,
2013-08-05 12:15:00,79.0,58.9,30.06,WSW,248,0.4,1.8,50,0.00,,,0.00,WUHU216HW,2013-08-05 16:15:00,
2013-08-05 12:20:00,79.0,59.4,30.06,North,0,0.4,1.3,51,0.00,,,0.00,WUHU216HW,2013-08-05 16:20:00,
2013-08-05 12:25:00,79.2,59.1,30.06,WSW,248,0.7,1.3,50,0.00,,,0.00,WUHU216HW,2013-08-05 16:25:00,
2013-08-05 12:31:00,78.8,57.4,30.06,WSW,248,0.0,0.7,48,0.00,,,0.00,WUHU216HW,2013-08-05 16:31:00,
2013-08-05 12:36:00,78.3,57.6,30.06,SW,225,1.3,1.3,49,0.00,,,0.00,WUHU216HW,2013-08-05 16:36:00,
2013-08-05 12:41:00,77.6,58.1,30.05,SSE,158,0.4,2.5,51,0.00,,,0.00,WUHU216HW,2013-08-05 16:41:00,
2013-08-05 12:46:00,77.4,58.4,30.05,WSW,248,0.4,2.5,52,0.00,,,0.00,WUHU216HW,2013-08-05 16:46:00,
2013-08-05 12:51:00,77.4,58.4,30.05,SSW,203,0.0,0.4,52,0.00,,,0.00,WUHU216HW,2013-08-05 16:51:00,
2013-08-05 13:00:00,77.0,58.1,30.05,West,270,0.0,0.0,52,0.00,,,0.00,WUHU216HW,2013-08-05 17:00:00,
2013-08-05 13:05:00,77.4,58.4,30.05,SSW,203,0.2,0.4,52,0.00,,,0.00,WUHU216HW,2013-08-05 17:05:00,
2013-08-05 13:10:00,77.4,58.4,30.05,South,180,0.0,0.4,52,0.00,,,0.00,WUHU216HW,2013-08-05 17:10:00,
2013-08-05 13:15:00,77.6,58.1,30.04,NNW,338,1.6,2.0,51,0.00,,,0.00,WUHU216HW,2013-08-05 17:15:00,
2013-08-05 13:20:00,77.4,57.9,30.04,SW,225,1.3,2.0,51,0.00,,,0.00,WUHU216HW,2013-08-05 17:20:00,
2013-08-05 13:26:00,77.4,58.4,30.04,SSE,158,0.9,1.3,52,0.00,,,0.00,WUHU216HW,2013-08-05 17:26:00,
2013-08-05 13:31:00,77.8,58.8,30.04,SW,225,0.0,0.9,52,0.00,,,0.00,WUHU216HW,2013-08-05 17:31:00,
2013-08-05 13:35:00,78.1,59.0,30.04,SSW,203,0.0,0.0,52,0.00,,,0.00,WUHU216HW,2013-08-05 17:35:00,
2013-08-05 13:41:00,78.5,59.4,30.03,WSW,248,0.4,0.4,52,0.00,,,0.00,WUHU216HW,2013-08-05 17:41:00,
2013-08-05 13:46:00,79.6,59.3,30.03,West,270,1.8,1.8,50,0.00,,,0.00,WUHU216HW,2013-08-05 17:46:00,
2013-08-05 13:51:00,80.5,59.5,30.03,West,270,1.6,1.8,49,0.00,,,0.00,WUHU216HW,2013-08-05 17:51:00,
2013-08-05 13:57:00,81.0,59.4,30.03,SW,225,0.9,1.6,48,0.00,,,0.00,WUHU216HW,2013-08-05 17:57:00,
2013-08-05 14:02:00,81.7,60.0,30.03,South,180,0.4,1.6,48,0.00,,,0.00,WUHU216HW,2013-08-05 18:02:00,
2013-08-05 14:07:00,81.2,59.0,30.02,SSE,158,1.1,1.1,47,0.00,,,0.00,WUHU216HW,2013-08-05 18:07:00,
2013-08-05 14:12:00,80.1,58.6,30.02,WSW,248,0.4,1.3,48,0.00,,,0.00,WUHU216HW,2013-08-05 18:12:00,
2013-08-05 14:18:00,80.3,59.4,30.02,SSW,203,1.6,1.6,49,0.00,,,0.00,WUHU216HW,2013-08-05 18:18:00,
2013-08-05 14:23:00,80.8,59.9,30.02,WSW,248,0.0,1.6,49,0.00,,,0.00,WUHU216HW,2013-08-05 18:23:00,
2013-08-05 14:28:00,81.0,59.4,30.02,SW,225,0.4,1.3,48,0.00,,,0.00,WUHU216HW,2013-08-05 18:28:00,
2013-08-05 14:33:00,80.3,58.1,30.01,WSW,248,0.7,1.8,47,0.00,,,0.00,WUHU216HW,2013-08-05 18:33:00,
2013-08-05 14:38:00,79.9,58.4,30.01,ESE,113,0.0,1.8,48,0.00,,,0.00,WUHU216HW,2013-08-05 18:38:00,
2013-08-05 14:43:00,79.4,58.6,30.01,WSW,248,0.4,1.1,49,0.00,,,0.00,WUHU216HW,2013-08-05 18:43:00,
2013-08-05 14:48:00,78.8,58.1,30.01,SW,225,0.9,1.1,49,0.00,,,0.00,WUHU216HW,2013-08-05 18:48:00,
2013-08-05 14:54:00,78.8,58.1,30.01,SW,225,0.0,1.1,49,0.00,,,0.00,WUHU216HW,2013-08-05 18:54:00,
2013-08-05 14:59:00,78.7,57.9,30.00,SSW,203,1.1,1.1,49,0.00,,,0.00,WUHU216HW,2013-08-05 18:59:00,
2013-08-05 15:04:00,78.7,57.9,30.01,SE,135,0.9,1.1,49,0.00,,,0.00,WUHU216HW,2013-08-05 19:04:00,
2013-08-05 15:09:00,79.6,59.3,30.00,WSW,248,0.0,0.9,50,0.00,,,0.00,WUHU216HW,2013-08-05 19:09:00,
2013-08-05 15:14:00,80.8,59.2,30.00,SSE,158,0.7,1.3,48,0.00,,,0.00,WUHU216HW,2013-08-05 19:14:00,
2013-08-05 15:19:00,81.7,58.9,30.00,SE,135,0.0,1.3,46,0.00,,,0.00,WUHU216HW,2013-08-05 19:19:00,
2013-08-05 15:24:00,81.4,58.5,30.00,ESE,113,0.2,0.4,46,0.00,,,0.00,WUHU216HW,2013-08-05 19:24:00,
2013-08-05 15:30:00,80.8,58.1,30.00,SW,225,0.9,2.9,46,0.00,,,0.00,WUHU216HW,2013-08-05 19:30:00,
2013-08-05 15:35:00,80.1,57.3,29.99,SSE,158,0.7,2.9,46,0.00,,,0.00,WUHU216HW,2013-08-05 19:35:00,
2013-08-05 15:40:00,80.3,58.1,29.99,SW,225,0.4,1.8,47,0.00,,,0.00,WUHU216HW,2013-08-05 19:40:00,
2013-08-05 15:45:00,80.3,58.1,29.99,NNE,23,0.4,0.9,47,0.00,,,0.00,WUHU216HW,2013-08-05 19:45:00,
2013-08-05 15:50:00,79.7,57.7,29.99,NE,45,0.0,0.9,47,0.00,,,0.00,WUHU216HW,2013-08-05 19:50:00,
2013-08-05 15:55:00,79.9,59.0,29.99,ENE,68,0.0,0.4,49,0.00,,,0.00,WUHU216HW,2013-08-05 19:55:00,
2013-08-05 16:00:00,81.7,58.9,29.99,South,180,0.4,1.3,46,0.00,,,0.00,WUHU216HW,2013-08-05 20:00:00,
2013-08-05 16:06:00,82.3,58.7,29.99,SW,225,0.0,1.3,45,0.00,,,0.00,WUHU216HW,2013-08-05 20:06:00,
2013-08-05 16:11:00,83.5,56.8,29.99,SE,135,1.6,1.6,40,0.00,,,0.00,WUHU216HW,2013-08-05 20:11:00,
2013-08-05 16:16:00,82.8,56.7,29.99,North,0,1.8,1.8,41,0.00,,,0.00,WUHU216HW,2013-08-05 20:16:00,
2013-08-05 16:21:00,83.2,57.1,29.99,SE,135,1.1,2.5,41,0.00,,,0.00,WUHU216HW,2013-08-05 20:21:00,
2013-08-05 16:26:00,83.2,57.1,29.99,NNW,338,3.4,3.4,41,0.00,,,0.00,WUHU216HW,2013-08-05 20:26:00,
2013-08-05 16:31:00,83.3,57.9,29.99,NNE,23,1.8,3.4,42,0.00,,,0.00,WUHU216HW,2013-08-05 20:31:00,
2013-08-05 16:37:00,83.3,57.9,29.99,ENE,68,0.9,1.8,42,0.00,,,0.00,WUHU216HW,2013-08-05 20:37:00,
2013-08-05 16:42:00,83.3,58.5,29.99,North,0,2.5,2.5,43,0.00,,,0.00,WUHU216HW,2013-08-05 20:42:00,
2013-08-05 16:48:00,82.6,57.2,29.99,WSW,248,0.0,2.5,42,0.00,,,0.00,WUHU216HW,2013-08-05 20:48:00,
2013-08-05 16:53:00,82.8,58.6,29.99,ESE,113,1.6,1.6,44,0.00,,,0.00,WUHU216HW,2013-08-05 20:53:00,
2013-08-05 16:58:00,83.2,58.3,29.98,ENE,68,0.0,1.6,43,0.00,,,0.00,WUHU216HW,2013-08-05 20:58:00,
2013-08-05 17:03:00,85.0,59.9,29.99,North,0,1.8,1.8,43,0.00,,,0.00,WUHU216HW,2013-08-05 21:03:00,
2013-08-05 17:08:00,85.0,57.2,29.99,NNW,338,2.2,4.3,39,0.00,,,0.00,WUHU216HW,2013-08-05 21:08:00,
2013-08-05 17:14:00,85.1,57.4,29.99,NNW,338,1.1,4.7,39,0.00,,,0.00,WUHU216HW,2013-08-05 21:14:00,
2013-08-05 17:19:00,85.3,56.8,29.99,North,0,3.8,4.7,38,0.00,,,0.00,WUHU216HW,2013-08-05 21:19:00,
2013-08-05 17:24:00,85.3,56.8,29.98,SE,135,0.4,3.8,38,0.00,,,0.00,WUHU216HW,2013-08-05 21:24:00,
2013-08-05 17:30:00,85.1,56.6,29.99,North,0,0.4,5.8,38,0.00,,,0.00,WUHU216HW,2013-08-05 21:30:00,
2013-08-05 17:35:00,85.3,56.8,29.99,NE,45,0.4,5.8,38,0.00,,,0.00,WUHU216HW,2013-08-05 21:35:00,
2013-08-05 17:40:00,85.5,56.2,29.99,SE,135,0.4,4.3,37,0.00,,,0.00,WUHU216HW,2013-08-05 21:40:00,
2013-08-05 17:41:00,85.7,57.2,29.99,North,0,2.0,2.0,38,0.00,,,0.00,WUHU216HW,2013-08-05 21:41:00,
2013-08-05 17:45:00,85.7,57.2,29.99,North,0,2.0,2.0,38,0.00,,,0.00,WUHU216HW,2013-08-05 21:45:00,
2013-08-05 17:50:00,85.7,57.2,29.99,North,0,2.0,2.0,38,0.00,,,0.00,WUHU216HW,2013-08-05 21:50:00,
2013-08-05 18:00:00,82.8,55.4,29.99,SW,225,0.4,0.4,39,0.00,,,0.00,WUHU216HW,2013-08-05 22:00:00,
2013-08-05 18:05:00,81.9,54.6,29.99,NE,45,0.2,1.3,39,0.00,,,0.00,WUHU216HW,2013-08-05 22:05:00,
2013-08-05 18:10:00,81.0,54.6,29.99,SSE,158,0.0,1.3,40,0.00,,,0.00,WUHU216HW,2013-08-05 22:10:00,
2013-08-05 18:15:00,80.6,54.8,29.99,ENE,68,0.2,1.3,41,0.00,,,0.00,WUHU216HW,2013-08-05 22:15:00,
2013-08-05 18:20:00,80.3,54.5,29.99,ENE,68,0.4,1.3,41,0.00,,,0.00,WUHU216HW,2013-08-05 22:20:00,
2013-08-05 18:26:00,80.3,55.1,29.99,NE,45,0.0,1.1,42,0.00,,,0.00,WUHU216HW,2013-08-05 22:26:00,
2013-08-05 18:27:00,80.6,56.0,30.00,North,0,0.7,0.7,43,0.00,,,0.00,WUHU216HW,2013-08-05 22:27:00,
2013-08-05 18:31:00,80.6,56.0,30.00,North,0,0.7,0.7,43,0.00,,,0.00,WUHU216HW,2013-08-05 22:31:00,
2013-08-05 18:36:00,80.6,56.0,30.00,North,0,0.7,0.7,43,0.00,,,0.00,WUHU216HW,2013-08-05 22:36:00,
2013-08-05 18:57:00,79.2,54.7,29.99,NNW,338,1.1,1.1,43,0.00,,,0.00,WUHU216HW,2013-08-05 22:57:00,
2013-08-05 19:02:00,79.2,54.7,29.99,NE,45,0.0,1.1,43,0.00,,,0.00,WUHU216HW,2013-08-05 23:02:00,
2013-08-05 19:08:00,78.8,54.4,30.00,South,180,1.1,1.1,43,0.00,,,0.00,WUHU216HW,2013-08-05 23:08:00,
2013-08-05 19:13:00,78.8,54.4,30.00,SSW,203,0.0,1.1,43,0.00,,,0.00,WUHU216HW,2013-08-05 23:13:00,
2013-08-05 19:18:00,78.5,54.7,30.00,SSW,203,0.0,0.0,44,0.00,,,0.00,WUHU216HW,2013-08-05 23:18:00,
2013-08-05 19:23:00,78.1,54.4,30.01,NE,45,0.0,0.2,44,0.00,,,0.00,WUHU216HW,2013-08-05 23:23:00,
2013-08-05 19:28:00,77.9,54.8,30.01,NE,45,0.0,0.2,45,0.00,,,0.00,WUHU216HW,2013-08-05 23:28:00,
2013-08-05 19:33:00,77.8,54.6,30.00,NE,45,0.0,0.0,45,0.00,,,0.00,WUHU216HW,2013-08-05 23:33:00,
2013-08-05 19:38:00,77.4,54.9,30.01,NE,45,0.0,0.0,46,0.00,,,0.00,WUHU216HW,2013-08-05 23:38:00,
2013-08-05 19:43:00,77.0,55.3,30.00,NE,45,0.0,0.0,47,0.00,,,0.00,WUHU216HW,2013-08-05 23:43:00,
2013-08-05 19:48:00,76.7,54.9,30.00,NE,45,0.0,0.0,47,0.00,,,0.00,WUHU216HW,2013-08-05 23:48:00,
2013-08-05 19:53:00,76.1,55.0,30.01,NNE,23,0.0,0.0,48,0.00,,,0.00,WUHU216HW,2013-08-05 23:53:00,
2013-08-05 19:58:00,75.8,55.4,30.01,NNE,23,0.0,0.0,49,0.00,,,0.00,WUHU216HW,2013-08-05 23:58:00,
2013-08-05 20:03:00,75.4,55.0,30.01,NNE,23,0.0,0.0,49,0.00,,,0.00,WUHU216HW,2013-08-06 00:03:00,
2013-08-05 20:08:00,75.1,55.3,30.01,NE,45,0.0,0.0,50,0.00,,,0.00,WUHU216HW,2013-08-06 00:08:00,
2013-08-05 20:14:00,74.7,54.9,30.01,NNE,23,0.0,0.0,50,0.00,,,0.00,WUHU216HW,2013-08-06 00:14:00,
2013-08-05 20:19:00,74.2,54.9,30.01,North,0,0.4,0.4,51,0.00,,,0.00,WUHU216HW,2013-08-06 00:19:00,
2013-08-05 20:24:00,73.8,55.0,30.01,NNW,338,0.0,0.4,52,0.00,,,0.00,WUHU216HW,2013-08-06 00:24:00,
2013-08-05 20:29:00,73.8,55.0,30.01,NW,315,0.0,0.2,52,0.00,,,0.00,WUHU216HW,2013-08-06 00:29:00,
2013-08-05 20:35:00,73.8,55.0,30.00,NNW,338,0.4,0.4,52,0.00,,,0.00,WUHU216HW,2013-08-06 00:35:00,
2013-08-05 20:40:00,73.6,55.4,30.01,NNW,338,0.0,0.4,53,0.00,,,0.00,WUHU216HW,2013-08-06 00:40:00,
2013-08-05 20:45:00,73.4,55.2,30.01,NNW,338,0.0,0.4,53,0.00,,,0.00,WUHU216HW,2013-08-06 00:45:00,
2013-08-05 20:50:00,73.3,55.0,30.00,NNW,338,0.0,0.0,53,0.00,,,0.00,WUHU216HW,2013-08-06 00:50:00,
2013-08-05 20:55:00,73.3,55.0,30.00,NNW,338,0.0,0.0,53,0.00,,,0.00,WUHU216HW,2013-08-06 00:55:00,
2013-08-05 21:00:00,72.7,55.5,30.01,NNW,338,0.0,0.0,55,0.00,,,0.00,WUHU216HW,2013-08-06 01:00:00,
2013-08-05 21:05:00,72.5,55.4,30.01,NNW,338,0.0,0.0,55,0.00,,,0.00,WUHU216HW,2013-08-06 01:05:00,
2013-08-05 21:11:00,72.4,55.7,30.01,NNW,338,0.0,0.0,56,0.00,,,0.00,WUHU216HW,2013-08-06 01:11:00,
2013-08-05 21:16:00,72.2,55.5,30.01,NNW,338,0.0,0.0,56,0.00,,,0.00,WUHU216HW,2013-08-06 01:16:00,
2013-08-05 21:21:00,72.0,55.4,30.01,NNW,338,0.0,0.0,56,0.00,,,0.00,WUHU216HW,2013-08-06 01:21:00,
2013-08-05 21:26:00,72.0,55.9,30.01,NNW,338,0.0,0.0,57,0.00,,,0.00,WUHU216HW,2013-08-06 01:26:00,
2013-08-05 21:31:00,71.8,55.7,30.01,NNW,338,0.0,0.0,57,0.00,,,0.00,WUHU216HW,2013-08-06 01:31:00,
2013-08-05 21:36:00,71.8,55.7,30.00,NNW,338,0.0,0.0,57,0.00,,,0.00,WUHU216HW,2013-08-06 01:36:00,
2013-08-05 21:41:00,71.6,55.5,30.00,NNW,338,0.0,0.0,57,0.00,,,0.00,WUHU216HW,2013-08-06 01:41:00,
2013-08-05 21:46:00,71.6,55.5,30.00,NNW,338,0.0,0.0,57,0.00,,,0.00,WUHU216HW,2013-08-06 01:46:00,
2013-08-05 21:52:00,71.6,56.1,30.00,NNW,338,0.0,0.0,58,0.00,,,0.00,WUHU216HW,2013-08-06 01:52:00,
2013-08-05 21:58:00,71.5,55.9,30.00,NNW,338,0.0,0.0,58,0.00,,,0.00,WUHU216HW,2013-08-06 01:58:00,
2013-08-05 22:03:00,71.3,56.3,29.99,NNW,338,0.2,0.2,59,0.00,,,0.00,WUHU216HW,2013-08-06 02:03:00,
2013-08-05 22:08:00,71.1,56.1,29.99,NNW,338,0.0,0.2,59,0.00,,,0.00,WUHU216HW,2013-08-06 02:08:00,
2013-08-05 22:13:00,70.9,55.9,29.99,NNW,338,0.0,0.0,59,0.00,,,0.00,WUHU216HW,2013-08-06 02:13:00,
2013-08-05 22:18:00,70.9,55.9,29.99,NNW,338,0.0,0.0,59,0.00,,,0.00,WUHU216HW,2013-08-06 02:18:00,
2013-08-05 22:23:00,70.9,55.9,29.99,NNW,338,0.0,0.0,59,0.00,,,0.00,WUHU216HW,2013-08-06 02:23:00,
2013-08-05 22:28:00,70.7,56.3,29.99,NNW,338,0.0,0.0,60,0.00,,,0.00,WUHU216HW,2013-08-06 02:28:00,
2013-08-05 22:33:00,70.6,56.1,29.99,NNW,338,0.0,0.0,60,0.00,,,0.00,WUHU216HW,2013-08-06 02:33:00,
2013-08-05 22:38:00,70.6,56.1,29.99,NNW,338,0.0,0.0,60,0.00,,,0.00,WUHU216HW,2013-08-06 02:38:00,
2013-08-05 22:43:00,70.4,56.3,30.00,NNW,338,0.0,0.0,61,0.00,,,0.00,WUHU216HW,2013-08-06 02:43:00,
2013-08-05 22:48:00,70.2,56.2,30.00,NNW,338,0.0,0.0,61,0.00,,,0.00,WUHU216HW,2013-08-06 02:48:00,
2013-08-05 22:54:00,70.0,56.4,30.00,NNW,338,0.0,0.0,62,0.00,,,0.00,WUHU216HW,2013-08-06 02:54:00,
2013-08-05 22:59:00,70.0,56.4,30.00,NNW,338,0.0,0.0,62,0.00,,,0.00,WUHU216HW,2013-08-06 02:59:00,
2013-08-05 23:04:00,69.8,56.7,30.00,NNW,338,0.0,0.0,63,0.00,,,0.00,WUHU216HW,2013-08-06 03:04:00,
2013-08-05 23:09:00,69.7,56.5,30.00,NNW,338,0.0,0.0,63,0.00,,,0.00,WUHU216HW,2013-08-06 03:09:00,
2013-08-05 23:15:00,69.5,56.8,30.00,NNW,338,0.0,0.0,64,0.00,,,0.00,WUHU216HW,2013-08-06 03:15:00,
2013-08-05 23:20:00,69.5,56.8,30.00,NNW,338,0.0,0.0,64,0.00,,,0.00,WUHU216HW,2013-08-06 03:20:00,
2013-08-05 23:25:00,69.3,57.0,30.00,NNW,338,0.0,0.0,65,0.00,,,0.00,WUHU216HW,2013-08-06 03:25:00,
2013-08-05 23:30:00,69.3,57.0,30.00,North,0,0.0,0.4,65,0.00,,,0.00,WUHU216HW,2013-08-06 03:30:00,
2013-08-05 23:36:00,69.1,56.8,30.00,North,0,0.0,0.4,65,0.00,,,0.00,WUHU216HW,2013-08-06 03:36:00,
2013-08-05 23:41:00,69.1,56.8,30.00,NNE,23,0.0,0.0,65,0.00,,,0.00,WUHU216HW,2013-08-06 03:41:00,
2013-08-05 23:46:00,69.1,57.2,30.00,North,0,0.0,0.4,66,0.00,,,0.00,WUHU216HW,2013-08-06 03:46:00,
2013-08-05 23:51:00,69.1,57.2,30.00,North,0,0.0,0.4,66,0.00,,,0.00,WUHU216HW,2013-08-06 03:51:00,
2013-08-05 23:56:00,68.9,57.5,30.00,North,0,0.0,0.4,67,0.00,,,0.00,WUHU216HW,2013-08-06 03:56:00,